Regional Weather Roundup
Issued by NWS Pendleton, OR

Home | Current Version | Previous Version | Text Only | Print | Product List | Glossary On
Versions: 1 2 3 4 5 6 7 8 9 10 11 12 13 14 15 16 17 18 19 20 21 22 23 24 25 26 27 28 29 30 31 32 33 34 35 36 37 38 39 40 41 42 43 44 45 46 47 48 49 50
000
ASUS46 KPDT 031110
RWRPDT
PENDLETON REGIONAL WEATHER ROUNDUP
NATIONAL WEATHER SERVICE PENDLETON OREGON
400 AM PDT TUE AUG 3 2021

NOTE: FAIR INDICATES FEW OR NO CLOUDS BELOW 12,000 FEET WITH NO
SIGNIFICANT WEATHER AND/OR OBSTRUCTIONS TO VISIBILITY.

# INDICATES UNOFFICIAL STATION AND DATA

WAZ520-031210-
EAST SLOPES OF WASHINGTON CASCADES

CITY            SKY/WX      TMP DP  RH  WIND    PRES   REMARKS
#BULLFROG       N/A         57  52  83  CALM    N/A
#EASTON DOT     N/A         62  57  84  CALM    N/A
#ELK HTS DOT    N/A         65  65  100 CALM    N/A
#GLENWOOD       N/A         58  52  80  CALM    29.98S
#NELSON 3SW     N/A         64  49  58  CALM    30.14S
#NILE           N/A         62  51  67  CALM    29.45F
#TROUT LAKE 1NE N/A         58  54  87  CALM    29.96S
#TROUT LAKE 1E  N/A         57  53  86  CALM    30.11R
$$

WAZ521-031210-
SIMCOE HIGHLANDS

CITY            SKY/WX      TMP DP  RH  WIND    PRES   REMARKS
#SATUS PASS DOT N/A         69  49  49  N1      N/A
#CENTERVILLE 1SWN/A         60  48  64  CALM    29.91R
#LYLE 6NE       N/A         70  62  76  CALM    29.95S
#PITT 4SE       N/A         69  60  73  CALM    29.95S
$$

WAZ026-031210-
KITTITAS VALLEY

CITY            SKY/WX      TMP DP  RH  WIND    PRES   REMARKS
ELLENSBURG AP   FAIR        63  48  58  CALM    30.07S
#ELLENSBURG CWU N/A         64  54  70  CALM    29.93S
#ELLENSBURG 3NE N/A         58  52  80  NE2     28.15S
#ELLENSBURG 1E  N/A         60  53  78  CALM    30.00S
#KITTITAS 3S    N/A         57  55  93  CALM    29.98R
#MANASTASH RDG  N/A         72  52  49  W8      N/A
#ROCKY CYN DOT  N/A         66  56  70  W3      N/A
#RYEGRASS DOT   N/A         70  53  55  W6      N/A
$$

WAZ027-031210-
YAKIMA VALLEY

CITY            SKY/WX      TMP DP  RH  WIND    PRES   REMARKS
SUNNYSIDE AP    FAIR        64  62  93  CALM    30.00S FOG
YAKIMA AIRPORT  FAIR        68  51  55  W7      30.03S
YAKIMA-VAGABOND FAIR        69  50  51  NE6     30.03S
#MABTON         N/A         69  60  73  CALM    29.98S
#NACHES 2SW     N/A         71  50  47  W5      30.08S
#OUTLOOK DOT    N/A         69  65  87  CALM    N/A
#PARKER DOT     N/A         80  49  34  S9      N/A
#TERRACE HTS    N/A         68  59  73  CALM    29.93S
#TOPPENISH      N/A         70  59  68  CALM    29.88S
#I82 S UMTANUM RN/A         75  54  48  S1      N/A
#UNION GAP DOT  N/A         66  59  78  NE3     N/A
#ZILLAH DOT     N/A         67  61  81  CALM    N/A
$$

WAZ028-031210-
LOWER COLUMBIA BASIN...WASHINGTON

CITY            SKY/WX      TMP DP  RH  WIND    PRES   REMARKS
PASCO           FAIR        67  62  84  N5      29.98S HAZE
PROSSER AWOS    N/A         68  63  84  NE3     30.02S
RICHLAND AWOS   FAIR        71  62  73  CALM    29.98S
#BASIN CITY 5SW N/A         67  62  84  CALM    29.98S
#BENTON CITY    N/A         70  59  68  CALM    29.86R
#CONNELL 5N     N/A         65  54  68  NE2     29.95S
#CONNELL 5NW    N/A         65  55  70  CALM    29.91S
#ELTOPIA 6NW    N/A         71  59  66  CALM    28.98R
#KAHLOTUS       N/A         69  51  53  S9      29.95S
#KENNEWICK 3S   N/A         79  57  47  CALM    29.94S
#PROSSER DOT    N/A         68  62  81  CALM    N/A
#SAGEMOOR 2W    N/A         75  61  62  N1      29.81S
#TOUCHET 2S     N/A         64  56  75  CALM    29.93S
$$

WAZ029-031210-
FOOTHILLS OF THE BLUES...WASHINGTON

CITY            SKY/WX      TMP DP  RH  WIND    PRES   REMARKS
WALLA WALLA AP  FAIR        76  55  48  E3      30.01S
#CLYDE 6NW      N/A         67  52  59  CALM    29.93S
#DELANEY DOT    N/A         65  52  63  E2      N/A
#LOWDEN 2SE     N/A         67  60  78  CALM    29.95S
#PRESCOTT       N/A         70  56  61  CALM    29.93S
#WALLA WALLA 5E N/A         72  57  59  CALM    N/A
#WHITMAN MISSIONN/A         68  61  78  CALM    29.96S
$$

WAZ030-031210-
BLUE MOUNTAINS...WASHINGTON

CITY            SKY/WX      TMP DP  RH  WIND    PRES   REMARKS
$$

ORZ009-041-WAZ024-031210-
COLUMBIA RIVER GORGE

CITY            SKY/WX      TMP DP  RH  WIND    PRES   REMARKS
HOOD RIVER AP   FAIR        64  55  73  CALM    30.02R
THE DALLES AP   FAIR        76  62  62  NW6     29.98R
#CELILO DOT     N/A         78  61  56  S1      N/A
#LYLE           N/A         76  64  66  NW3     30.00S
#MARYHILL       N/A         74  57  55  N5      N/A
#RUFUS DOT      N/A         78  52  40  S3      N/A

$$

ORZ510-031210-
NORTH CENTRAL OREGON

CITY            SKY/WX      TMP DP  RH  WIND    PRES   REMARKS
#ANTELOPE       N/A         59  46  62  CALM    29.81R
#COW CYN RST AREN/A         72  45  38  W6      N/A
#DUFUR          N/A         61  48  62  CALM    29.93R
#DUFUR 9E       N/A         76  58  54  CALM    29.97S
#GRASS VALLEY 1SN/A         67  44  43  SW7     29.90R
#KENT DOT       N/A         70  39  32  S3      N/A
#MORO SCHOOL    N/A         65  45  48  CALM    29.93S
#SHANIKO 5WSW   N/A         72  44  37  S5      N/A
#WAPANITIA AIRPON/A         68  50  53  W1      29.96R
#WASCO DOT      N/A         62  48  60  W2      N/A
#WASCO 5NE      N/A         72  53  51  SW7     29.91S
$$

ORZ511-031210-
CENTRAL OREGON

CITY            SKY/WX      TMP DP  RH  WIND    PRES   REMARKS
BEND AIRPORT    FAIR        61  50  67  S6      30.18S
MADRAS AIRPORT  FAIR        63  48  58  MISG    30.13S
PRINEVILLE AP   CLOUDY      55  50  83  CALM    30.16F
REDMOND AIRPORT FAIR        54  44  69  CALM    30.14S
#ASHWOOD SCHOOL N/A         63  44  50  CALM    30.08R
#BEND-KIM LN    N/A         61  46  58  SW5     29.91S
#CULVER         N/A         64  49  58  CALM    29.42S
#PRINEVILLE     N/A         58  52  80  CALM    30.07F
#WARM SPRINGS   N/A         66  45  47  CALM    29.86R

$$


ORZ509-031210-
EAST SLOPES OF OREGON CASCADES

CITY            SKY/WX      TMP DP  RH  WIND    PRES   REMARKS
SISTERS AWOS    N/A         55  50  83  CALM    30.11F
SUNRIVER AWOS   CLOUDY      52  45  77  CALM    30.25F
#BLUE BOX PASS  N/A         69  N/A N/A CALM    N/A
#LA PINE DOT    N/A         53  44  71  W1      N/A
#LAVA BUTTE DOT N/A         57  39  51  CALM    N/A
#SISTERS ODOT   N/A         55  47  74  CALM    N/A
#TUMALO 3W      N/A         68  44  42  CALM    29.80S
#WANOGA BUTTE D N/A         67  39  36  N1      N/A

$$

ORZ044-031210-
LOWER COLUMBIA BASIN...OREGON

CITY            SKY/WX      TMP DP  RH  WIND    PRES   REMARKS
HERMISTON       FAIR        67  57  70  CALM    29.98F
#BOARDMAN SCHOOLN/A         68  54  61  CALM    29.91S
#ECHO 8SW       N/A         66  54  65  SW1     30.00S
#I-84 EX 198 DOTN/A         78  54  43  N2      N/A
#UMATILLA       N/A         70  60  71  CALM    29.87S
$$

ORZ507-031210-
NORTHERN FOOTHILLS OF THE BLUES

CITY            SKY/WX      TMP DP  RH  WIND    PRES   REMARKS
PENDLETON AIRPT FAIR        73  50  44  S7      30.04S
#ATHENA         N/A         65  55  70  CALM    29.97S
#CAYUSE         N/A         76  53  45  E8      29.92S
#HELIX SCHOOL   N/A         65  51  60  CALM    29.94S
#HELIX 3N       N/A         72  51  48  CALM    30.07S
#HOLDMAN 6E     N/A         72  52  49  CALM    29.74R
#M-FREEWATER 5SEN/A         76  56  50  NE6     30.01S
#PDT SUNRIDGE   N/A         66  49  54  CALM    29.98F
#PENDLETON 6SE  N/A         70  52  53  CALM    29.88F
#TUTUILLA       N/A         63  51  65  CALM    30.08F
#UMAPINE 2E     N/A         68  59  73  CALM    29.93S
#WESTON SCHOOL  N/A         75  52  45  CALM    29.67S

$$

ORZ508-031210-
SOUTHERN FOOTHILLS OF THE BLUES

CITY            SKY/WX      TMP DP  RH  WIND    PRES   REMARKS
#HEPPNER EOC    N/A         71  47  42  CALM    29.88S
#HEPPNER 4NE    N/A         70  47  44  E2      29.93S
#OLEX 4N        N/A         70  47  44  CALM    29.93S
#RUGGS 2SW      N/A         74  47  38  S8      29.97F

$$

ORZ502-503-031210-
BLUE MOUNTAINS

CITY            SKY/WX      TMP DP  RH  WIND    PRES   REMARKS
MEACHAM         FAIR        54  48  80  CALM    30.19F
#BATTLE MTN DOT N/A         62  47  58  CALM    N/A
#LADD CYN SMT   N/A         60  56  87  CALM    N/A
#LADD CREEK ODOTN/A         63  50  62  W2      N/A
#N POWDER DOT   N/A         57  52  83  S1      N/A
#TOLLGATE       N/A         62  49  62  CALM    30.27S
#TROY SCHOOL    N/A         66  57  73  CALM    29.85R
#WESTON 4E      N/A         73  52  48  CALM    29.90S
$$

ORZ505-031210-
JOHN DAY BASIN

CITY            SKY/WX      TMP DP  RH  WIND    PRES   REMARKS
JOHN DAY        FAIR        63  49  60  E7      30.20S
#DAYVILLE SCHOOLN/A         60  53  78  CALM    30.09S
#MITCHELL 8NW   N/A         73  44  35  CALM    29.96S
#MONUMENT HS    N/A         61  49  65  CALM    29.86R
#MT. VERNON 5SE N/A         62  48  60  CALM    30.23S
$$

ORZ506-031210-
OCHOCO AND JOHN DAY HIGHLANDS

CITY            SKY/WX      TMP DP  RH  WIND    PRES   REMARKS
#BUCK CREEK DOT N/A         62  48  60  SE9     N/A
#HORSE RIDGE DO N/A         56  44  64  E5      N/A
#KEYES SMT DOT  N/A         59  45  60  E3      N/A
#PAULINA ODOT   N/A         54  N/A N/A NE2     N/A
#PRAIRIE CITY   N/A         55  47  74  CALM    30.12F
#SENECA 9NW     N/A         47  43  86  CALM    30.01R
$$

ORZ049-031210-
GRANDE RONDE VALLEY

CITY            SKY/WX      TMP DP  RH  WIND    PRES   REMARKS
LA GRANDE       FAIR        61  54  78  SW3     30.15S
#COVE SCHOOL    N/A         65  50  58  CALM    30.15R
#COVE 6NW       N/A         60  52  75  CALM    29.98S
#ELGIN 1E       N/A         61  52  72  CALM    N/A
#ISLAND CITY 4N N/A         62  58  87  CALM    30.04R
#LADD CYN DOT   N/A         66  54  65  S6      N/A
#UNION 1S       N/A         64  54  70  CALM    29.97S
$$

ORZ050-031210-
WALLOWA COUNTY

CITY            SKY/WX      TMP DP  RH  WIND    PRES   REMARKS
JOSEPH AIRPORT  FAIR        58  45  62  CALM    30.24R
#ENTERPRISE HS  N/A         57  52  83  CALM    29.88S
#IMNAHA SCHOOL  N/A         66  57  73  CALM    30.00R
#JOSEPH 3N      N/A         54  46  74  CALM    30.22S
#LOSTINE        N/A         58  52  80  CALM    29.81R
#LOSTINE 3SE    N/A         59  50  72  S2      30.28R
#WALLOWA LAKE   N/A         64  45  50  SE1     30.28S
#WALLOWA SCHOOL N/A         58  54  87  CALM    30.00R



$$


USA.gov is the U.S. government's official web portal to all federal, state and local government web resources and services.